Main page
Satellite images Climate Cyclones Lightning AirportsFAQ Languages Contact Newsletter About
Weather : Europe Africa North America South America Asia Australia-Oceania Others

chittagong-bd, Chittagong, Shah Amanat International Airport

latitude: , longitude: Bangladesh, elevation: 22-16N m


METAR: VGEG 200200Z 00000KT 6000 FEW018 SCT100 29/25 Q1008 NOSIG